Theta_e
320 318 320 320 313 310 314 321 327 328 326 327 329 328 325 325 326 324 327 326 324 326 323 320 321 320 325 330 333 335 333 340 339 337 343 340 335 339 339 338 337 333 338 342 341 340 338 341 339 338 335 335 337 338 340 335 332 323 323 336 336 335 338 339 341 341 340 340 340 337 337 338 338 333 330 331 331 331 331 332 334 333 330 328 329 331 331 332 335 337 338 336 335 335 336 336 335
320 319 319 320 315 310 315 323 327 329 327 326 326 328 325 322 321 325 330 326 326 325 319 319 318 322 334 340 340 338 336 340 338 336 338 337 338 340 338 339 335 332 340 342 341 341 341 342 340 339 336 337 338 338 338 333 330 320 321 336 335 335 339 340 340 338 339 336 337 337 338 339 339 337 335 336 336 336 334 332 332 330 327 324 328 331 331 331 333 336 336 336 335 335 335 336 335
320 320 320 320 317 314 320 324 327 329 329 327 325 325 322 320 323 325 326 324 323 320 317 319 318 321 332 341 342 337 336 339 340 339 337 338 340 339 339 339 334 332 340 342 342 342 342 341 340 340 338 339 339 337 334 328 325 318 325 336 334 336 339 341 340 336 334 333 334 336 339 340 341 340 339 339 338 338 336 333 331 328 323 318 324 331 331 329 332 335 334 335 335 336 335 335 335
319 320 321 320 318 317 320 321 327 330 328 327 325 325 325 321 320 319 318 318 316 315 318 320 320 321 326 338 341 338 340 340 340 340 339 339 339 340 339 337 334 335 341 343 342 342 342 342 341 340 340 341 339 334 326 323 324 322 327 333 333 337 340 341 341 338 332 330 334 336 338 341 342 342 340 340 339 338 336 333 331 327 322 315 318 329 331 326 331 334 333 334 334 336 336 336 336
319 321 321 320 321 316 314 315 322 325 323 326 325 322 322 318 316 315 316 315 313 314 318 319 320 323 329 339 339 341 341 339 338 336 338 338 338 340 338 337 336 338 342 343 342 343 342 342 343 341 341 341 337 327 321 325 327 328 329 332 335 339 341 342 342 341 335 329 333 336 339 342 342 342 341 340 340 338 336 333 332 329 324 316 313 325 331 326 328 333 334 334 333 334 335 335 336
320 322 321 321 321 317 317 318 320 320 319 322 323 319 316 314 314 316 316 315 314 315 316 318 320 327 339 339 336 340 337 337 338 336 338 338 339 339 338 337 337 339 342 343 342 343 342 342 343 341 340 340 333 321 320 327 330 332 334 335 338 340 342 343 343 343 339 332 333 337 340 343 342 342 341 340 340 339 336 335 333 330 325 319 312 320 331 328 326 332 334 334 332 332 334 335 336
320 324 327 327 326 324 325 323 321 318 316 317 319 318 315 315 316 318 317 316 317 316 316 318 319 329 340 334 333 337 335 337 337 337 339 337 339 339 338 337 338 341 342 344 343 343 343 343 342 340 341 339 330 319 321 330 334 336 338 338 339 342 343 344 344 344 342 334 332 337 341 342 342 341 341 340 340 339 337 336 333 331 327 322 313 316 330 328 324 331 333 333 331 330 332 333 335
321 327 329 332 331 330 330 327 325 319 314 315 316 316 317 321 318 318 319 315 315 315 317 319 320 329 334 331 337 336 335 340 336 338 338 337 340 338 338 337 338 341 342 343 342 343 343 343 342 340 341 338 329 321 324 333 335 336 339 340 341 343 343 345 344 344 343 335 332 338 342 342 342 341 340 341 340 339 338 336 334 332 329 324 315 314 327 329 325 330 332 332 331 328 330 331 333
321 326 328 331 334 332 332 331 328 321 318 318 319 320 321 322 318 317 318 315 314 314 316 318 319 325 331 337 346 339 336 340 337 338 338 338 340 338 337 337 338 341 342 342 342 343 343 342 340 340 342 338 329 324 326 331 335 338 340 341 342 343 343 344 344 344 343 338 336 339 342 342 342 341 341 341 340 340 338 337 335 332 330 324 317 314 322 329 327 329 331 333 332 328 329 330 332
324 327 329 332 335 333 334 332 328 325 325 324 322 322 321 321 318 316 316 316 315 313 314 317 320 329 337 344 348 340 338 340 338 339 339 339 340 338 338 337 337 340 342 342 343 342 342 342 340 341 342 339 331 326 327 328 332 337 340 342 343 343 344 344 344 344 343 342 340 341 342 342 342 341 341 341 340 339 338 337 335 333 330 325 320 315 317 325 328 328 330 332 332 330 327 329 331
329 326 328 332 334 334 334 333 330 327 326 326 324 322 321 319 318 317 316 318 315 312 315 314 321 340 346 348 345 337 337 340 340 340 340 340 341 338 338 339 339 340 341 342 342 342 342 342 341 341 341 341 335 329 328 327 328 331 335 340 342 342 343 343 343 343 343 343 342 342 342 342 341 340 341 340 339 339 338 337 335 333 328 325 323 318 315 320 327 328 328 330 332 331 328 328 329
331 326 328 332 333 333 332 333 330 327 326 326 326 325 322 319 320 319 315 318 317 315 317 310 315 335 350 358 346 335 337 340 340 339 340 340 341 339 338 340 340 340 340 341 342 342 343 342 341 341 341 341 339 334 331 330 328 327 328 332 338 340 342 342 343 343 343 343 343 342 342 342 342 341 341 340 339 338 338 336 334 332 326 325 325 320 314 315 322 327 328 328 329 331 328 327 328
331 328 330 332 332 332 330 331 330 328 328 329 330 328 325 324 322 318 316 319 319 314 315 310 313 330 346 355 347 337 337 340 340 339 340 340 341 340 339 340 340 341 340 341 342 342 342 342 341 341 341 341 340 339 334 333 332 330 328 329 334 338 340 341 341 342 342 343 343 342 341 342 342 341 340 339 339 338 337 336 334 332 326 324 325 320 315 312 316 323 328 325 326 331 329 328 327
329 327 329 331 330 330 330 330 330 329 330 330 331 330 327 328 320 317 319 323 322 314 311 309 315 330 335 343 350 346 339 338 341 340 340 341 340 340 339 340 340 340 340 341 341 342 342 341 341 340 341 341 340 340 338 336 334 334 334 333 334 337 339 339 340 341 341 342 342 342 341 342 341 341 340 339 339 337 337 336 333 332 326 324 325 322 317 314 314 318 323 321 322 327 329 328 327
327 328 328 330 329 329 330 330 330 329 330 329 331 331 330 329 322 322 323 323 322 313 311 310 315 322 324 337 347 339 335 337 341 341 340 341 340 340 340 339 339 339 341 341 341 342 342 341 341 340 340 340 339 339 340 339 337 335 335 335 335 336 337 338 340 340 341 341 341 342 341 342 341 341 340 339 339 338 337 336 333 331 326 324 325 323 319 320 321 319 319 318 317 320 324 326 326
325 329 328 329 330 329 329 329 328 328 329 326 329 332 330 330 325 325 323 318 319 315 316 315 316 318 320 332 334 328 333 338 340 341 340 340 340 340 339 339 339 339 340 340 343 342 342 342 341 341 340 340 338 337 337 339 339 337 336 335 335 335 336 337 339 340 341 341 341 342 342 341 341 341 340 339 339 338 336 335 333 331 327 325 325 325 323 324 326 324 321 320 319 317 318 321 324
326 329 328 329 329 329 329 327 326 328 330 327 329 331 328 330 327 325 320 314 318 319 320 316 315 319 324 329 330 330 336 337 340 340 340 340 340 340 339 339 338 339 341 340 342 343 342 342 341 341 340 340 338 336 336 336 337 337 337 336 336 336 337 337 339 340 341 342 342 342 342 341 341 341 340 340 339 337 337 335 333 331 329 325 325 326 325 325 328 327 324 323 322 320 317 316 319
326 327 327 328 327 327 327 325 325 328 332 329 329 330 328 329 328 327 325 320 319 319 322 320 317 321 327 331 333 335 337 337 339 339 338 339 339 340 339 340 339 339 341 340 341 343 342 342 341 340 340 339 338 337 335 335 335 335 336 337 337 337 337 338 339 339 340 341 341 341 342 341 340 341 340 339 339 337 337 335 333 332 329 326 325 326 326 326 327 327 326 326 324 323 320 315 315
325 327 327 327 325 326 325 324 324 325 330 331 330 329 328 329 327 328 329 326 323 320 323 324 322 322 325 330 333 335 337 337 338 338 338 339 339 340 339 340 340 338 340 341 341 343 342 342 342 340 340 339 338 338 336 334 333 333 335 336 336 336 336 337 338 339 339 340 340 340 341 341 340 341 340 339 338 338 337 335 333 332 329 326 325 326 326 326 327 327 327 327 326 325 323 317 313
324 326 328 327 325 326 325 324 324 323 327 330 330 327 327 328 327 328 329 328 326 324 323 322 323 326 328 327 328 332 337 337 337 337 338 339 339 339 339 340 340 338 339 340 340 342 342 342 341 340 339 339 339 338 336 335 333 331 333 335 336 335 335 336 338 338 338 338 339 340 340 340 340 340 340 339 339 338 337 335 334 333 329 324 324 325 326 326 327 327 327 327 327 325 323 320 316
322 323 326 325 322 325 325 324 324 324 326 326 329 326 325 327 325 327 328 328 327 324 323 322 322 326 334 332 326 328 333 333 335 337 337 338 339 339 339 339 339 338 338 339 340 341 341 342 341 339 338 338 338 337 336 334 333 333 332 333 335 335 334 335 336 337 338 338 338 340 341 340 339 340 340 339 339 338 337 336 334 334 330 323 322 324 325 326 327 328 328 328 327 326 324 323 320
317 319 320 319 319 323 323 322 323 324 325 325 328 326 325 325 324 325 325 326 326 324 322 321 322 327 333 331 326 328 332 333 332 334 336 337 338 339 339 339 339 338 338 339 339 339 339 340 340 338 338 338 338 337 334 332 332 334 333 332 332 333 333 334 336 336 336 336 336 338 340 340 339 339 340 339 339 338 337 336 335 334 332 325 321 323 325 326 327 327 328 328 327 326 325 324 323
314 315 315 316 317 319 319 318 319 320 321 324 326 324 325 326 325 324 323 324 324 323 323 321 321 322 323 324 328 333 338 338 333 332 335 337 337 338 339 339 339 339 338 338 338 338 338 338 338 337 337 337 337 336 332 329 327 329 330 329 329 330 329 329 334 337 336 335 335 337 337 338 340 339 338 338 338 338 337 337 336 335 334 330 324 322 324 325 326 326 327 328 328 327 327 325 324
313 314 313 313 313 312 314 314 314 315 315 320 321 319 322 325 326 324 322 322 322 321 322 324 323 318 317 323 331 334 336 333 328 332 335 336 337 338 339 339 338 339 338 338 337 337 337 337 337 336 336 336 336 334 330 328 326 328 329 329 330 330 329 328 332 334 335 336 337 337 338 338 339 338 338 338 336 336 336 336 337 335 335 333 330 325 323 324 325 325 326 326 327 327 327 326 324
312 312 312 312 310 309 310 310 310 311 310 314 315 314 317 322 325 324 323 321 321 320 320 325 327 323 321 323 328 329 331 327 322 328 333 334 336 336 338 338 338 338 338 338 337 337 337 336 336 335 334 334 334 332 329 331 331 330 330 332 334 333 331 331 334 335 333 335 338 338 339 340 338 337 336 336 335 335 335 336 336 336 335 335 334 329 324 323 324 325 325 325 326 326 326 325 324
310 310 311 310 309 308 309 308 308 307 309 310 310 310 312 318 322 320 322 322 321 322 320 323 327 327 326 326 326 326 328 326 320 321 327 332 335 334 336 337 338 338 337 337 337 337 336 336 336 335 334 333 333 331 329 332 334 330 332 334 333 334 335 333 333 336 336 335 337 337 338 338 339 338 336 335 335 334 334 335 335 335 335 335 335 331 325 323 324 324 325 326 326 326 325 325 324
307 308 309 309 309 310 309 309 308 307 309 309 308 309 308 313 318 316 320 323 321 324 323 322 323 323 325 327 326 324 326 323 316 315 319 325 331 333 334 335 337 338 338 337 336 336 335 336 336 335 335 333 332 332 330 330 331 329 332 335 331 331 337 337 332 332 336 337 336 337 338 336 336 338 336 335 334 334 334 335 334 334 334 335 334 329 323 323 324 325 326 327 327 327 326 326 325
307 308 307 308 310 310 309 308 309 307 308 308 308 308 308 310 312 311 319 325 322 323 324 323 322 320 321 324 324 322 322 317 312 312 314 317 325 331 334 335 336 337 338 338 337 336 335 336 337 336 336 334 332 332 332 331 329 328 330 334 333 332 334 337 336 332 333 338 338 336 337 336 335 335 336 334 334 333 333 333 333 333 333 333 332 327 323 324 325 326 327 328 329 329 329 327 326
307 307 307 309 309 308 308 308 310 308 308 309 308 308 307 307 309 309 316 326 326 323 323 323 322 320 318 320 321 321 319 316 312 312 313 313 318 326 333 335 336 337 337 338 338 338 337 337 337 337 336 335 334 333 333 332 330 328 328 329 331 334 335 334 335 334 332 335 339 338 335 334 335 334 335 334 333 333 332 332 332 332 331 331 330 326 326 328 329 329 330 331 331 331 331 330 328
307 307 307 308 308 308 307 306 309 308 309 312 308 307 308 306 308 314 317 322 325 324 322 321 321 321 319 319 319 319 319 318 315 313 314 313 313 318 325 331 334 335 336 336 336 336 337 338 338 338 336 336 336 334 333 332 331 329 328 327 326 329 333 334 333 333 333 332 335 338 335 333 335 335 335 334 333 332 332 332 332 332 329 329 329 326 326 330 332 332 332 333 333 333 333 332 331
308 308 307 307 308 309 307 306 308 307 309 313 309 306 307 306 307 314 319 320 320 320 320 320 320 321 321 320 319 319 319 318 317 316 316 316 314 313 316 322 325 324 323 325 324 326 333 337 338 338 336 336 336 335 334 333 332 331 329 328 327 326 327 330 330 329 331 332 331 334 336 333 332 333 334 334 333 332 331 331 333 330 327 328 329 326 325 328 332 332 333 333 334 333 334 334 333
309 307 306 308 309 308 307 308 308 308 308 309 309 307 307 308 308 312 316 317 317 316 316 317 319 320 321 321 320 320 320 319 317 318 318 317 317 315 315 316 316 315 314 314 314 321 332 336 337 338 337 337 337 337 336 334 333 331 330 329 329 329 328 327 327 326 327 329 329 330 333 333 332 331 331 331 331 331 330 330 329 325 324 327 328 326 324 326 329 331 332 333 334 334 334 334 334
308 306 305 308 309 306 307 308 307 307 307 306 307 308 308 308 307 311 313 313 314 314 313 315 316 318 319 319 320 320 320 320 319 318 318 319 318 317 317 316 316 316 314 312 312 319 330 335 335 336 336 337 337 337 336 335 334 332 331 331 331 331 331 331 329 328 327 327 326 326 327 329 331 331 330 330 330 329 329 328 324 321 323 326 326 325 325 325 328 330 331 332 333 334 334 334 334
305 306 305 305 306 305 306 309 307 305 306 306 307 306 307 307 307 310 311 310 311 311 311 312 313 314 315 316 317 318 319 320 320 319 318 319 319 319 318 317 317 316 315 312 311 316 327 334 335 334 335 335 335 335 335 334 334 333 333 333 334 333 333 333 332 331 330 330 330 330 329 328 327 328 328 329 329 330 329 328 325 322 322 323 324 324 325 327 329 331 331 332 333 334 334 334 334
302 306 307 305 305 305 305 307 305 304 305 306 307 306 305 306 307 308 307 307 307 308 308 308 309 310 311 314 316 316 317 318 318 318 318 319 319 319 318 317 315 314 314 313 313 321 329 333 334 334 334 334 334 335 335 335 335 335 335 335 335 335 335 335 334 333 332 333 334 334 334 332 330 328 327 328 328 329 330 328 326 325 324 324 325 326 328 329 331 332 333 333 333 334 334 334 335
300 303 306 305 303 304 304 305 305 304 304 306 306 305 305 305 305 305 305 305 305 305 306 306 307 307 308 310 312 313 315 315 314 314 316 317 318 319 319 317 315 314 313 314 317 324 330 332 333 334 334 334 334 334 334 334 334 335 335 333 333 334 334 334 334 334 333 333 334 334 334 333 332 331 330 329 329 329 329 329 328 329 330 330 330 331 332 333 334 335 334 335 334 334 335 335 335
300 301 303 302 301 302 302 304 307 305 304 306 305 304 304 304 304 304 304 304 304 304 304 305 306 306 307 307 308 309 310 310 309 311 313 313 315 316 316 316 314 313 313 315 319 324 327 330 331 330 331 333 333 333 333 332 332 333 333 332 332 333 333 333 333 333 332 332 332 332 333 332 332 332 332 332 331 330 330 330 331 332 334 334 334 334 335 335 336 335 334 335 335 334 335 335 335
301 300 301 301 300 300 300 302 306 305 304 305 304 304 304 303 303 304 304 303 303 303 303 303 304 305 306 306 306 307 308 308 308 309 310 310 312 312 312 312 311 310 311 314 319 321 321 323 324 323 323 327 329 329 330 330 327 328 330 329 329 331 331 332 332 331 331 331 331 331 331 332 333 332 332 333 333 332 332 333 333 334 334 335 336 336 336 335 335 335 334 334 335 334 334 334 334
300 300 300 300 299 299 301 301 303 303 305 306 304 303 303 302 303 304 305 304 302 302 303 303 303 304 305 305 306 309 311 311 310 311 310 308 309 309 308 307 307 307 307 311 315 315 314 315 317 315 315 318 320 320 321 323 322 322 323 323 322 324 325 326 327 327 327 328 329 329 329 330 331 331 332 332 333 333 333 334 335 336 336 336 336 336 336 335 334 334 334 334 334 334 334 334 333
300 300 300 299 298 298 300 301 300 301 304 306 303 302 302 301 303 304 304 303 302 303 304 304 303 303 303 304 305 308 312 313 312 312 309 306 305 305 305 305 305 305 305 306 309 310 310 310 311 310 310 312 312 312 313 314 314 314 315 316 316 317 318 318 319 319 320 321 322 324 325 326 326 328 330 331 332 333 333 333 335 335 336 336 336 335 335 335 335 333 333 334 333 333 334 333 332
300 300 300 299 299 298 299 300 300 302 304 304 302 302 302 302 303 304 304 303 303 303 304 304 303 302 303 304 304 306 309 311 313 312 308 305 303 302 303 303 304 304 303 304 305 306 307 306 307 307 307 307 308 308 308 308 309 309 309 310 310 310 311 311 312 313 313 313 313 315 316 316 317 319 322 325 327 329 330 331 332 333 333 334 334 335 335 335 335 333 332 332 332 332 334 334 333
300 300 300 299 300 299 299 300 302 303 303 302 303 303 306 308 306 305 304 303 303 302 303 303 302 302 302 303 303 304 306 309 310 310 307 304 301 300 301 302 302 303 303 303 304 304 305 305 305 305 305 305 305 306 306 306 307 307 307 307 307 307 307 307 308 308 309 309 309 308 308 309 310 311 312 315 318 321 323 325 328 329 330 331 332 333 333 333 335 334 332 332 332 331 332 333 333
302 302 301 299 299 300 300 300 302 303 302 301 302 304 306 307 307 308 306 304 304 302 302 303 302 302 302 303 303 302 305 307 307 306 305 303 300 299 300 300 300 301 301 302 302 303 304 304 304 305 305 305 305 305 305 305 306 306 306 306 306 306 306 305 305 305 305 306 306 306 306 306 307 308 308 309 310 312 314 316 319 322 324 327 329 330 330 331 332 333 334 334 332 331 331 332 332
303 302 304 303 301 300 300 300 301 302 302 301 302 303 304 303 304 307 306 305 306 304 302 301 300 301 301 301 302 302 303 307 307 305 303 303 300 299 299 299 299 299 299 300 301 302 302 303 303 304 305 305 305 305 304 305 305 305 305 304 304 304 304 304 303 303 304 304 304 304 305 305 305 306 306 306 307 307 308 309 311 313 315 318 321 324 327 329 330 330 332 332 331 331 333 334 333
303 300 302 304 302 301 300 301 301 301 301 302 301 302 303 304 303 302 301 303 305 305 304 302 300 300 300 300 301 301 302 304 305 304 303 301 299 298 299 298 299 298 299 299 299 300 300 301 302 302 303 304 304 304 303 303 304 304 304 303 303 302 303 303 302 302 303 303 303 303 304 304 304 304 305 305 305 306 306 306 307 308 309 310 312 315 318 322 325 327 328 329 329 330 331 332 332
301 299 300 301 300 300 299 301 301 300 301 303 302 302 303 304 302 301 301 301 302 301 302 301 300 300 300 300 300 300 301 302 303 302 301 299 298 298 298 298 298 298 298 298 298 299 299 299 300 300 301 301 302 303 302 302 302 302 302 302 302 302 302 302 302 302 302 302 302 303 303 303 303 303 303 304 304 304 305 305 305 306 306 307 308 309 310 313 316 319 322 325 327 327 328 329 329
299 299 301 300 300 300 299 299 300 300 302 302 302 302 302 303 303 301 301 303 302 300 300 301 300 300 300 300 299 299 301 302 302 301 300 298 297 297 297 297 297 297 297 298 298 298 298 298 299 299 299 300 300 301 301 301 301 301 301 301 301 301 301 301 301 301 302 302 302 302 302 303 303 303 303 303 303 303 303 304 304 304 305 305 305 306 307 308 309 311 314 317 320 323 324 326 326
299 301 303 301 301 301 300 299 300 301 302 302 302 301 300 302 303 300 300 303 303 300 301 302 301 301 300 299 299 299 300 301 301 300 299 298 297 297 296 296 296 296 297 297 297 297 298 298 298 298 298 299 299 300 300 300 300 301 301 301 301 301 301 301 301 301 301 301 301 301 302 302 302 302 302 303 303 303 303 303 303 303 303 304 304 304 305 305 306 307 308 310 312 314 317 319 321
298 301 302 302 302 302 300 300 301 301 301 301 301 301 300 300 301 299 299 301 302 299 299 301 301 301 300 301 301 300 300 300 299 299 298 298 297 296 295 295 296 296 296 296 296 296 296 297 298 298 297 298 298 299 299 300 300 300 300 300 300 300 300 300 300 300 299 299 299 300 300 300 300 301 301 301 302 302 303 303 303 303 303 303 303 303 304 304 304 305 306 306 307 308 309 311 313
298 299 301 301 302 302 300 300 300 299 299 299 298 299 300 299 300 300 298 298 299 298 297 299 300 300 302 306 305 301 300 299 298 298 297 297 297 296 295 295 295 295 295 295 295 296 296 296 296 296 296 296 297 297 298 298 298 298 298 298 298 298 297 297 297 297 297 297 297 297 297 297 297 298 298 299 299 300 301 302 302 303 303 303 303 303 303 303 304 304 304 305 305 306 306 307 307
297 298 300 300 301 302 299 299 299 298 299 298 297 299 301 301 302 302 300 299 299 298 298 297 298 299 302 304 302 300 299 298 297 297 296 296 295 294 294 294 295 295 295 295 295 295 294 294 295 295 295 295 295 296 296 296 296 296 296 296 296 296 296 295 295 295 295 295 295 296 296 295 296 296 296 296 296 297 298 299 300 301 302 303 303 303 303 303 303 303 304 304 304 305 305 306 306
297 297 299 299 300 300 298 298 298 298 298 297 298 300 300 300 300 299 300 300 299 299 299 298 300 301 301 301 300 298 298 297 297 296 295 295 294 293 294 294 294 294 294 294 294 294 293 293 293 294 294 294 294 295 295 295 295 295 295 295 295 295 295 295 295 295 295 295 295 295 295 295 295 295 295 295 295 296 296 296 297 298 299 300 301 302 303 303 303 303 304 304 304 304 304 305 305
300 298 298 298 298 298 299 298 297 296 296 297 300 301 299 298 299 298 299 300 298 299 299 298 300 301 301 301 299 297 296 296 296 295 295 295 293 293 293 293 294 294 294 294 294 293 293 293 293 293 293 293 293 294 294 294 294 294 294 294 294 294 295 295 295 295 295 295 295 295 295 295 295 295 295 295 295 295 295 296 296 296 296 297 298 299 301 302 303 303 303 303 304 304 304 304 305
300 299 298 297 296 298 299 298 299 298 296 296 299 300 298 297 299 300 299 299 300 300 298 297 299 301 302 300 297 296 296 295 294 294 294 293 292 292 292 293 294 294 294 294 293 293 293 293 293 293 293 293 293 293 293 293 293 293 293 293 294 294 294 294 294 294 294 294 294 294 294 294 295 295 295 295 295 295 295 296 296 296 296 296 296 296 297 299 300 302 303 303 303 303 303 304 304
298 298 299 299 298 298 298 298 299 300 297 296 297 296 296 297 298 299 299 298 299 300 299 298 299 301 301 298 296 295 295 294 294 293 293 293 292 291 292 293 293 293 293 293 293 293 293 292 292 292 292 292 292 293 293 293 293 293 293 293 293 293 293 293 293 293 293 293 293 293 293 294 294 294 294 294 294 295 295 295 295 296 296 296 296 296 296 296 297 299 301 302 302 302 303 303 303
296 296 297 298 298 298 298 298 298 299 299 298 297 296 296 296 296 297 299 298 297 298 300 300 299 299 298 297 295 294 294 293 293 292 292 292 291 290 291 292 293 293 293 293 293 293 292 292 292 292 292 292 292 292 292 292 292 292 292 292 292 292 292 292 292 292 292 292 292 292 292 292 293 293 293 293 294 294 294 294 295 295 295 295 295 296 296 296 295 296 298 300 301 301 302 302 302
296 296 295 296 296 296 296 297 297 298 298 298 297 297 298 297 296 296 296 297 297 297 301 301 298 297 297 296 294 294 293 292 292 292 291 291 290 289 291 292 292 293 293 293 293 292 292 292 291 292 292 292 292 292 292 292 292 292 292 292 292 291 292 292 291 292 292 291 291 291 291 291 292 292 292 292 293 293 293 293 294 294 294 295 295 295 295 296 295 294 295 297 298 299 299 300 300
293 295 295 295 296 296 296 297 297 296 296 297 297 297 298 298 297 297 297 297 296 296 299 300 298 296 296 295 293 293 293 292 291 291 290 291 289 288 290 291 292 292 292 293 293 292 292 291 291 291 291 291 291 291 291 291 291 291 291 291 291 291 290 290 290 290 290 290 290 290 290 290 291 291 291 291 291 292 292 292 293 293 293 294 294 295 295 294 294 294 294 295 295 295 296 297 298
Wind_Speed
10 13 20 24 14 3 1 2 1 1 2 1 2 1 4 3 1 1 4 4 3 3 2 2 1 2 2 2 4 6 4 4 4 5 4 5 4 21 17 4 19 33 36 35 32 31 28 27 25 24 23 22 20 20 20 19 18 20 23 22 21 20 19 20 19 20 22 21 19 20 20 19 19 19 19 17 16 15 14 14 13 12 11 10 10 9 10 10 7 10 13 13 14 13 12 12 12
10 11 15 19 13 4 2 2 2 1 1 3 2 3 3 3 2 3 5 4 4 4 4 5 3 3 2 2 3 3 1 3 3 3 2 0 9 20 12 8 26 36 36 34 33 31 29 27 25 24 23 22 20 20 19 18 17 20 25 23 22 22 20 21 21 21 22 21 20 20 19 18 18 18 18 16 15 14 13 13 12 11 10 9 11 10 9 11 6 8 13 13 13 13 12 11 11
11 12 15 15 10 4 1 2 1 2 2 5 3 3 2 3 4 4 6 7 8 7 8 6 3 3 1 1 0 1 2 3 2 2 1 5 10 15 11 14 30 35 34 33 33 31 29 27 25 24 22 22 21 20 18 17 17 21 27 24 23 22 20 22 22 21 22 22 20 19 18 17 17 17 17 16 15 14 13 12 11 9 9 8 10 10 8 11 8 6 11 12 12 12 11 10 9
11 11 15 13 5 4 3 2 1 4 3 3 2 4 2 2 5 6 7 9 10 7 4 4 2 2 1 1 1 0 1 3 2 3 2 6 8 14 15 19 31 33 32 32 32 31 29 27 25 24 22 22 20 18 16 17 19 24 29 26 25 22 20 22 23 22 21 21 20 19 18 17 16 16 17 16 15 14 12 11 10 8 8 8 9 11 8 11 10 6 9 11 11 11 10 10 8
11 10 12 9 1 2 2 1 1 2 4 3 0 3 2 2 4 7 9 10 10 6 2 1 3 2 1 1 1 1 2 3 1 4 6 8 9 15 18 24 31 30 30 29 31 30 28 27 25 24 22 21 18 15 15 19 24 28 28 26 24 22 21 22 22 22 21 21 20 19 18 16 15 16 16 16 15 13 11 9 9 7 7 8 8 10 10 9 11 8 7 10 10 11 10 10 8
8 7 8 6 2 0 1 1 1 2 3 3 2 2 2 3 4 6 9 11 8 3 3 1 3 3 1 2 1 2 1 1 1 3 9 10 10 15 22 28 30 29 30 28 30 29 28 27 25 24 22 20 17 14 17 24 27 27 26 25 23 22 22 21 21 21 21 22 20 18 17 16 15 15 16 15 14 12 10 8 7 7 6 7 7 9 10 8 11 11 7 9 10 10 11 10 9
2 1 4 3 1 1 2 2 4 3 2 4 2 2 2 4 4 5 8 8 7 3 2 1 3 2 1 2 1 2 2 2 2 2 10 13 12 19 25 28 29 28 28 27 29 28 28 27 25 24 22 20 17 17 23 27 26 24 24 23 23 22 21 21 21 21 20 21 20 18 16 16 15 15 16 15 14 11 9 8 6 6 6 6 6 8 10 8 12 12 7 9 10 9 10 10 9
4 2 1 1 1 1 2 3 4 2 3 3 3 3 2 4 3 5 6 4 5 4 2 3 2 1 3 1 0 2 5 7 3 4 11 16 16 22 26 27 29 28 27 28 28 28 27 26 25 24 22 21 19 21 26 26 25 24 23 22 22 20 20 20 20 20 20 21 19 17 16 16 15 15 16 15 13 11 8 7 5 5 5 6 6 7 10 9 13 13 10 9 9 9 9 9 9
5 2 0 1 1 2 3 3 3 3 4 3 4 4 3 4 2 4 6 3 3 5 5 6 2 1 4 2 1 3 6 9 1 9 13 17 20 24 26 27 29 28 27 27 28 27 27 26 26 25 23 22 21 22 24 24 25 24 22 21 20 19 18 18 19 20 19 20 19 18 16 15 14 15 16 15 13 11 9 7 5 4 4 5 5 6 9 9 11 12 11 9 9 9 9 9 9
4 2 1 1 2 4 6 5 4 3 3 2 5 7 4 4 2 3 5 5 5 4 6 4 0 1 3 2 2 3 4 4 7 13 15 19 21 24 26 26 28 28 27 27 27 27 26 26 26 25 24 23 23 23 22 22 24 23 21 20 18 17 17 16 18 19 19 19 19 18 16 15 14 14 15 15 13 11 9 7 5 4 3 3 5 5 7 10 10 10 10 8 8 9 9 9 9
2 2 1 1 3 7 7 6 6 4 2 1 6 8 4 2 3 2 3 5 4 5 6 4 2 1 3 2 3 2 1 4 10 14 17 21 22 24 26 25 26 28 28 27 27 26 26 26 25 25 24 23 24 23 22 22 23 22 20 19 17 16 15 15 16 17 18 18 18 17 16 15 15 14 14 15 13 11 10 8 5 3 2 2 3 3 5 9 10 9 10 8 7 8 9 9 9
2 1 1 2 5 6 4 5 7 5 4 4 8 6 2 3 3 2 3 4 5 6 6 3 2 1 2 3 3 1 4 6 10 14 17 21 22 23 25 25 25 27 28 27 27 27 26 26 25 24 23 23 23 24 24 23 23 22 21 20 18 16 15 15 15 16 16 16 17 17 16 15 14 14 14 15 14 11 10 8 5 3 1 2 2 2 4 8 10 9 9 9 8 8 9 9 9
2 3 3 2 3 4 4 4 4 3 6 7 7 4 2 3 3 2 1 4 4 5 6 4 1 1 1 3 3 2 3 6 9 15 18 20 22 22 24 25 24 24 26 26 26 26 27 26 25 24 23 23 23 23 24 23 23 22 22 21 19 18 16 15 15 15 15 15 16 17 17 15 14 14 14 15 13 12 11 8 5 3 2 2 1 1 3 6 9 10 8 8 11 8 8 10 9
3 3 4 2 1 3 4 4 2 4 7 3 2 2 1 1 3 1 3 5 5 1 5 4 2 2 2 3 4 3 1 7 12 16 17 18 20 21 23 24 24 24 25 26 26 26 27 26 25 24 23 22 22 23 23 23 23 22 22 21 21 19 18 16 15 15 15 15 15 17 17 16 15 14 15 15 13 12 11 8 6 4 3 2 1 1 3 6 6 8 7 7 11 9 8 10 9
3 2 2 2 1 2 4 5 4 6 6 2 3 2 0 3 3 2 2 3 6 3 3 2 3 1 1 1 3 3 1 10 15 16 18 17 18 20 22 23 23 23 24 25 26 26 26 26 26 24 23 23 22 22 22 22 23 23 22 21 20 19 18 17 16 15 15 15 15 17 18 16 15 15 15 15 14 13 11 9 7 5 3 2 2 1 2 5 5 5 5 5 7 7 8 10 9
2 3 2 2 3 3 4 4 5 6 4 3 3 4 1 6 3 3 5 3 5 3 2 3 1 1 2 4 4 6 3 12 17 17 18 17 17 18 19 21 22 22 23 25 24 26 27 26 26 25 24 23 22 22 22 22 22 22 22 21 20 18 18 17 16 16 15 15 15 17 19 18 17 17 17 16 15 13 11 9 7 5 4 3 3 2 2 3 4 3 3 3 2 2 6 9 10
1 3 2 3 4 5 5 6 6 4 2 4 3 5 4 7 1 2 4 3 5 5 2 3 1 3 4 4 6 7 2 15 18 18 18 17 17 17 18 19 20 21 22 24 23 25 27 26 26 26 25 24 23 23 22 22 22 21 21 21 20 19 18 17 17 16 15 15 16 17 19 19 19 18 17 17 15 13 12 10 8 6 5 4 3 3 2 2 4 2 1 1 1 1 2 6 9
1 3 3 5 6 6 6 7 6 2 2 4 5 5 6 4 4 1 4 5 5 4 3 2 3 1 3 2 4 3 7 17 19 18 16 16 16 16 16 18 21 21 21 22 22 25 27 26 26 26 25 25 24 23 23 23 23 22 21 21 20 20 19 18 17 16 16 16 16 17 19 19 17 17 18 18 15 14 12 10 8 6 5 5 4 3 3 2 3 3 2 1 0 1 1 2 7
2 3 4 6 5 3 4 6 5 2 3 4 5 5 7 5 4 1 3 9 6 5 5 3 6 6 4 2 5 6 9 14 17 17 15 16 17 17 17 18 21 21 21 21 20 23 27 26 26 26 25 24 24 24 24 24 24 24 22 21 21 20 19 19 17 16 17 17 16 17 19 18 17 17 18 18 16 14 12 11 9 7 6 5 5 4 4 4 4 4 4 2 1 1 1 0 3
1 2 4 5 3 2 2 4 5 4 4 4 4 5 6 6 4 1 1 8 11 11 8 4 5 6 6 5 4 5 6 9 11 13 14 16 16 18 19 20 22 23 23 23 22 23 25 26 26 25 25 24 23 23 23 24 23 23 24 23 21 20 20 19 18 17 17 17 17 16 18 19 18 17 18 17 16 15 13 12 10 7 7 6 7 6 6 6 6 6 5 5 4 3 2 1 2
1 2 3 2 1 3 4 3 4 4 5 6 4 5 5 5 4 3 3 3 12 14 10 7 7 6 5 6 4 2 4 4 7 9 10 12 13 15 17 19 22 24 24 23 23 24 24 24 25 25 25 24 24 22 22 23 23 22 22 22 22 21 21 20 19 18 18 18 17 17 19 19 18 17 18 18 16 15 14 13 11 9 8 8 8 9 8 8 8 8 8 7 7 6 4 3 3
1 2 2 2 2 2 2 1 1 1 1 4 4 5 4 3 3 5 7 7 9 9 7 8 8 7 6 4 2 1 3 3 4 7 8 9 11 13 14 17 17 18 21 23 24 25 26 25 26 27 27 26 25 24 22 23 23 23 22 22 23 23 23 22 20 20 20 19 18 18 19 19 19 19 18 18 17 16 15 14 12 12 11 10 10 11 10 9 9 9 9 9 9 8 7 6 6
2 3 3 4 2 2 4 5 4 5 4 2 3 2 2 4 4 6 10 12 9 7 6 6 7 6 5 4 2 0 1 2 3 6 9 9 9 11 14 17 17 17 20 23 25 27 27 28 28 28 28 27 26 25 23 22 22 22 22 22 22 23 24 24 23 22 21 20 19 20 20 21 21 20 20 19 18 17 16 16 15 14 13 12 12 12 11 10 10 10 10 11 11 11 10 9 8
2 3 4 5 4 3 4 5 6 5 4 4 2 4 2 6 6 3 9 13 11 11 6 4 4 2 2 2 4 3 2 3 4 6 9 11 13 13 15 19 21 19 20 22 24 25 27 28 28 28 27 27 27 26 23 20 20 21 21 20 20 21 22 23 24 25 24 21 21 23 23 24 23 21 21 20 19 19 18 18 17 17 15 14 14 14 13 12 11 11 12 12 12 12 12 11 10
3 4 3 3 5 4 5 6 6 6 5 4 5 6 5 7 4 4 10 11 11 12 5 4 4 2 4 4 3 3 3 3 3 5 7 9 12 14 16 20 20 18 19 21 22 23 26 27 27 27 27 27 26 26 25 21 22 22 20 20 19 20 21 22 23 23 25 24 23 25 25 25 25 23 23 22 22 22 21 21 20 19 17 16 15 15 15 14 13 13 13 13 13 13 13 13 12
3 3 3 3 6 6 7 7 5 6 4 3 6 8 7 5 4 9 12 11 8 8 7 6 6 5 6 6 5 5 4 5 3 3 5 7 10 11 14 18 18 18 19 19 20 22 24 26 27 27 27 27 26 26 27 25 24 24 23 22 22 21 20 23 25 23 22 23 24 25 26 27 26 25 24 25 25 24 23 23 22 20 19 18 17 16 16 15 15 14 14 15 14 15 15 14 14
2 3 4 5 7 7 5 6 5 5 4 4 6 10 10 4 5 8 7 8 8 6 8 7 7 9 8 7 6 5 5 7 6 3 3 7 10 13 14 16 18 19 20 20 21 23 23 25 26 26 26 26 26 27 28 28 27 26 25 22 23 23 20 20 24 26 24 22 25 26 25 27 27 26 26 26 25 25 25 24 23 22 21 20 19 18 17 16 16 16 15 15 15 16 15 15 15
4 4 6 6 6 7 4 5 5 2 4 4 4 9 10 5 9 10 4 4 8 8 11 10 9 11 10 10 9 5 6 10 10 5 4 7 11 14 15 16 18 19 19 20 22 22 23 25 25 25 25 25 26 28 28 28 28 27 27 25 24 24 22 21 21 25 28 25 24 27 27 26 27 27 26 26 25 25 25 25 24 23 22 21 19 18 17 17 16 16 16 16 16 17 17 16 16
3 3 5 7 6 7 6 6 5 5 3 2 3 6 10 12 13 9 6 4 7 9 12 12 11 11 10 11 10 8 8 11 10 9 10 10 11 13 15 16 17 17 18 18 18 21 22 24 25 25 25 25 26 28 28 29 28 27 27 28 28 25 23 25 24 23 27 28 25 26 28 27 27 26 26 26 26 26 26 25 25 24 23 21 19 18 18 17 16 17 17 17 18 18 18 17 17
3 2 2 4 6 7 6 4 5 6 5 5 5 4 11 15 11 5 8 8 8 10 11 12 11 9 9 9 9 10 10 10 10 13 16 14 13 12 11 13 13 13 14 14 16 18 20 22 24 24 25 26 26 27 28 29 29 28 27 27 28 28 26 27 28 26 26 29 28 25 26 27 27 26 26 26 27 26 26 26 25 24 22 21 20 19 19 18 18 18 18 18 19 19 19 18 18
3 3 1 1 2 5 4 1 6 5 5 7 8 6 12 11 6 4 8 10 12 12 12 12 10 8 8 8 9 10 11 12 14 18 21 19 18 16 11 10 11 9 9 10 12 12 16 20 24 25 26 26 26 26 28 29 29 29 28 27 26 27 29 29 30 29 28 29 30 27 26 26 27 27 27 28 28 28 27 26 26 24 22 21 20 20 20 20 20 20 19 20 20 20 20 20 20
2 2 2 1 3 4 4 3 7 7 4 6 9 6 9 8 5 4 5 8 10 12 13 12 11 9 8 8 9 9 10 13 17 20 23 25 24 22 18 13 10 10 9 10 11 11 13 18 22 25 25 26 27 26 27 28 29 29 29 29 28 27 27 28 29 29 29 29 29 29 28 27 27 27 28 29 29 29 27 26 25 22 21 21 21 21 21 21 21 21 21 21 22 22 22 21 21
2 2 4 3 5 3 4 5 5 7 3 3 8 6 3 2 3 3 3 3 4 7 10 10 11 10 8 8 8 9 9 10 13 16 22 26 26 26 25 20 16 13 12 12 13 13 13 15 19 23 25 26 27 28 27 28 28 29 29 29 29 28 27 28 27 27 27 27 27 28 29 29 29 29 28 28 28 27 26 25 23 21 22 22 22 22 21 21 21 22 22 22 23 23 23 23 23
1 3 4 4 5 5 4 5 3 3 4 5 9 10 8 4 2 5 4 4 4 5 8 8 9 8 7 7 7 8 8 9 10 13 22 26 28 28 26 24 21 18 16 14 14 15 15 15 16 19 23 25 25 25 26 27 28 28 28 28 28 28 28 28 28 27 27 26 27 27 27 27 28 29 29 29 29 28 26 25 23 21 22 22 22 22 22 22 21 22 22 23 23 23 24 24 24
3 4 3 4 4 6 7 5 2 3 2 6 7 11 14 10 7 9 7 1 3 7 7 7 8 8 7 5 6 7 7 9 9 11 19 23 27 30 25 21 20 18 16 14 13 14 15 16 16 18 21 23 23 23 23 23 25 26 26 25 25 26 26 26 26 26 26 27 28 27 26 25 25 25 26 26 27 27 26 25 23 21 21 21 22 22 22 21 21 22 23 22 22 23 24 24 25
2 5 4 5 5 7 6 5 4 1 2 7 8 12 14 10 9 10 10 6 6 10 7 6 7 7 7 6 6 7 7 9 9 11 15 16 21 27 27 24 20 17 14 12 10 12 14 16 17 18 19 21 21 21 20 17 19 25 24 19 17 18 20 21 23 24 24 25 26 24 23 23 23 23 23 24 25 25 25 25 23 20 20 20 21 22 21 20 20 21 22 22 22 22 24 24 24
1 2 4 5 6 8 2 1 5 2 2 8 8 11 14 11 9 8 10 8 8 12 11 8 7 7 7 8 8 8 9 8 9 13 14 13 15 19 22 23 21 17 15 14 13 14 14 15 16 17 17 18 19 18 17 15 15 18 17 12 10 10 11 12 15 18 19 21 21 21 22 21 21 22 21 24 27 26 24 24 23 21 21 20 20 20 20 19 19 20 22 24 25 23 23 22 22
4 4 5 6 7 8 3 1 4 2 1 7 5 8 14 13 7 6 8 9 10 12 11 10 10 9 7 8 9 9 7 6 7 9 10 12 14 15 17 19 18 17 18 20 19 18 17 16 16 16 17 17 16 16 16 15 13 12 11 10 8 7 6 6 6 7 8 10 11 13 16 17 18 20 20 22 24 24 22 23 22 20 20 20 20 20 20 21 20 20 22 23 24 23 22 20 19
5 3 4 7 7 4 4 4 3 2 3 5 4 5 13 13 7 7 9 10 11 10 10 11 11 11 10 8 8 7 7 6 7 6 6 10 13 15 17 18 17 16 19 22 23 22 19 18 17 16 16 16 16 15 15 14 11 10 9 9 9 8 7 6 5 3 3 3 4 4 5 6 10 13 15 15 15 16 17 19 18 18 19 19 19 19 19 19 19 19 20 21 21 20 19 17 15
6 5 4 9 8 2 4 4 1 3 4 4 4 5 11 11 6 7 9 11 11 8 9 11 9 11 12 9 7 6 7 7 6 4 2 5 9 13 15 16 16 15 17 20 23 24 22 20 18 17 15 15 15 14 12 12 11 10 10 9 8 8 8 7 6 5 3 2 2 2 1 1 3 4 6 6 8 10 11 12 12 13 15 16 16 17 19 19 18 17 19 22 21 17 16 16 17
7 7 7 11 11 7 7 4 2 3 4 4 4 6 9 9 7 8 8 9 10 9 9 10 9 10 9 8 7 7 7 6 5 5 3 3 5 8 11 15 17 17 16 18 22 24 23 21 18 17 16 14 13 12 11 10 9 9 9 9 9 9 9 7 6 5 4 3 2 2 1 1 1 1 2 3 5 7 8 9 10 11 12 12 12 13 17 19 18 18 18 22 22 20 18 18 19
5 8 14 17 13 10 8 1 4 4 5 4 3 4 7 6 5 8 7 6 9 9 9 12 12 10 8 8 9 8 6 5 5 5 4 4 4 6 9 13 16 18 17 18 20 22 23 21 18 16 14 13 12 11 10 9 8 8 7 8 8 8 8 6 5 4 3 2 2 2 2 1 1 1 1 1 2 4 6 7 9 10 11 12 12 13 16 16 16 18 19 21 24 24 22 20 19
5 6 11 15 13 11 9 4 3 3 6 2 3 4 7 5 4 7 6 5 10 9 7 11 11 8 9 9 9 8 6 5 4 5 5 5 5 7 8 11 14 17 18 19 20 21 21 21 19 16 13 11 10 8 8 8 8 7 7 7 7 6 6 5 4 3 2 2 1 0 1 1 2 2 2 2 2 2 4 5 7 8 9 11 13 15 17 16 14 16 17 20 24 24 24 23 22
5 3 6 10 12 13 11 8 6 5 5 3 2 4 6 8 7 4 4 4 10 10 9 11 10 8 9 9 8 8 8 7 6 6 7 7 7 8 10 12 14 16 18 20 21 21 21 20 19 17 15 12 10 7 6 6 6 6 7 7 7 6 5 5 4 3 3 2 1 0 1 2 2 3 4 4 4 4 4 4 4 6 7 8 10 12 14 16 16 17 16 17 20 21 22 23 23
5 1 4 6 8 10 9 7 6 6 5 3 3 4 4 9 6 1 2 6 10 11 12 13 11 10 10 9 9 9 8 8 8 9 9 8 10 12 14 14 15 17 18 19 20 21 20 20 19 18 17 14 12 8 6 5 5 6 7 7 8 8 6 6 4 3 2 2 1 1 1 2 2 3 4 4 5 5 6 6 5 5 5 6 7 8 10 13 17 19 19 18 19 18 19 21 22
3 4 4 4 2 1 2 4 4 4 4 6 8 6 5 9 6 2 2 6 9 11 11 11 10 9 9 10 10 8 6 7 7 8 8 8 11 15 17 17 17 17 19 20 21 21 21 20 19 19 17 15 13 11 8 7 7 7 8 8 8 9 8 7 6 4 3 2 2 3 3 2 2 3 3 4 5 5 5 6 6 7 7 7 7 7 8 10 12 15 18 19 20 19 19 20 20
3 4 4 5 4 4 2 1 3 2 4 8 14 12 9 9 5 5 5 6 9 9 8 9 10 8 9 10 9 7 6 6 6 6 6 7 12 16 18 19 19 18 19 21 21 21 21 21 20 20 19 17 16 14 12 11 9 9 9 9 8 9 8 7 7 6 6 5 5 6 5 5 4 3 3 4 4 5 5 6 6 6 7 8 8 9 9 9 10 11 13 16 18 20 21 21 21
4 3 3 1 3 4 4 3 1 4 6 10 16 12 11 10 7 4 7 7 8 9 8 10 12 11 9 7 7 6 6 7 7 7 7 8 10 13 15 18 20 20 20 21 22 22 22 22 22 23 22 19 19 18 16 15 13 12 11 11 10 10 9 8 9 10 10 10 10 9 8 8 8 7 6 5 6 6 6 6 6 6 7 7 8 9 9 9 10 11 12 13 15 16 18 20 21
4 3 4 3 3 2 1 2 3 5 7 11 12 7 7 10 11 11 9 7 9 9 9 10 11 10 8 6 6 5 5 6 7 7 8 8 9 10 13 16 19 21 22 23 23 24 24 24 24 26 24 22 21 20 20 19 18 17 15 14 14 14 13 13 13 13 13 13 13 12 12 12 12 12 11 11 11 10 9 8 7 7 7 7 8 8 9 10 10 11 12 12 13 14 14 15 17
7 5 5 6 4 3 6 5 3 4 8 11 6 6 5 4 8 15 15 14 13 9 8 10 9 8 7 6 5 5 6 7 7 8 8 8 8 9 13 17 18 20 22 24 25 25 26 26 27 28 26 24 23 23 23 23 22 20 19 18 17 16 16 16 16 16 15 15 14 14 15 15 15 15 15 14 13 12 11 10 9 8 8 7 8 8 8 9 9 10 11 12 13 13 14 14 15
8 7 7 9 6 5 8 6 6 7 5 6 2 5 5 4 6 10 11 13 13 11 10 9 7 7 5 3 4 6 6 7 6 7 8 8 8 11 14 16 18 21 22 23 25 26 27 27 28 29 27 25 25 24 24 24 23 21 20 19 19 18 18 18 18 18 17 17 16 16 16 16 16 16 15 15 14 14 13 12 11 10 9 8 8 8 8 8 8 9 9 10 12 12 13 14 15
5 5 6 9 8 7 6 3 6 6 2 3 2 3 4 4 5 6 4 5 8 12 12 9 7 5 3 2 4 5 5 6 6 7 7 7 9 12 13 15 18 20 22 23 24 26 28 28 29 29 28 26 25 25 24 23 22 21 20 20 19 19 19 19 19 18 18 18 17 17 17 17 17 17 16 16 16 16 16 15 15 14 13 11 10 9 9 8 8 9 9 9 10 10 11 13 14
3 4 7 7 4 5 6 4 1 2 3 5 4 3 3 3 7 7 5 4 4 9 11 10 8 3 4 4 4 4 4 6 6 6 7 7 8 11 14 17 18 20 22 23 24 26 28 29 29 29 28 26 25 24 23 22 21 20 20 19 18 18 18 18 17 17 17 17 17 17 17 17 17 17 17 17 17 18 18 18 18 17 17 16 14 12 11 10 10 9 9 9 9 10 10 11 12
3 5 6 2 1 2 2 3 2 0 6 6 6 8 7 5 6 5 6 6 6 8 9 8 4 3 6 6 5 5 5 6 6 6 7 6 8 11 14 17 19 22 23 24 25 26 27 28 28 28 26 25 23 22 21 20 19 19 18 18 17 16 16 16 16 16 15 15 15 16 15 16 16 16 16 17 17 17 18 18 19 19 19 19 18 17 15 13 12 11 10 10 10 11 11 11 11
3 4 3 4 2 3 3 4 5 5 8 6 7 12 8 7 7 4 6 10 10 9 7 5 5 7 8 6 6 7 7 7 7 7 7 6 7 10 14 16 18 21 23 25 26 25 26 26 25 26 24 23 21 20 19 18 17 17 17 16 16 15 15 15 14 14 14 14 15 15 15 15 15 15 15 16 16 17 17 18 18 19 19 20 20 19 19 18 16 14 12 11 11 11 12 12 12
1 3 3 1 4 5 4 6 6 7 9 7 7 9 5 5 7 6 9 12 10 8 6 6 9 10 9 7 8 8 9 8 8 8 7 7 8 12 15 17 19 22 23 26 26 25 26 24 24 24 23 22 20 18 18 17 16 16 15 15 15 14 14 14 13 13 13 14 15 14 15 15 14 14 15 15 16 16 16 17 18 18 19 19 20 20 20 19 18 17 15 13 12 12 12 13 13
2 3 5 3 3 2 2 4 4 5 7 7 8 8 5 3 5 9 13 11 8 9 9 9 10 10 8 8 9 9 9 9 9 9 8 8 9 13 16 18 20 22 23 24 25 25 25 23 23 23 22 21 20 18 17 17 17 15 15 15 14 14 14 13 13 13 13 14 14 14 15 15 14 15 15 15 16 16 16 17 17 17 18 18 19 19 19 19 18 18 17 15 15 15 14 14 14
3 5 6 6 7 5 5 6 4 3 4 5 7 8 6 3 1 5 7 6 5 7 9 10 9 8 7 7 9 10 9 9 9 9 9 8 9 13 16 18 20 21 22 23 24 24 24 23 23 22 21 21 20 19 18 17 17 16 15 16 15 15 14 13 13 14 14 14 14 14 14 14 14 15 15 16 16 16 17 17 16 17 17 18 19 19 19 19 18 17 17 16 16 17 16 15 15
Wind_Direction
322 331 344 352 357 3 302 89 89 305 82 229 244 214 252 237 245 302 279 295 309 252 214 335 205 166 185 201 188 180 173 179 175 143 203 272 147 162 168 166 167 164 162 164 164 166 168 168 167 165 164 165 168 167 167 169 170 174 168 157 155 160 162 159 159 159 156 153 147 144 142 139 139 138 135 129 126 123 120 116 113 109 102 96 97 91 92 98 78 90 97 97 103 104 103 103 110
327 323 334 346 353 4 255 78 115 300 67 250 247 177 254 304 294 227 238 257 252 267 327 308 249 225 220 184 150 136 205 229 186 152 262 232 140 165 176 173 166 163 163 164 165 166 169 168 166 166 166 166 167 171 174 175 178 175 168 159 157 162 165 161 159 160 159 156 151 147 143 141 142 142 139 133 130 127 125 123 118 112 102 95 101 99 97 109 92 90 100 98 101 103 107 104 109
326 330 344 354 356 11 53 42 130 161 176 234 253 222 272 313 268 248 245 253 262 295 324 302 263 202 226 346 172 148 244 263 162 101 332 148 149 172 180 168 164 163 163 164 167 167 168 168 167 168 167 166 168 174 179 183 185 174 165 159 158 164 167 164 159 160 162 160 153 150 147 144 147 145 145 139 135 131 130 131 124 114 99 92 105 106 102 116 111 93 102 101 101 99 103 106 108
317 336 356 5 5 12 38 24 138 147 197 219 271 263 246 275 296 297 275 271 277 297 327 319 315 186 172 299 262 123 280 306 171 132 160 181 174 176 174 164 162 162 163 165 168 168 169 168 168 168 166 165 169 175 181 183 176 167 163 157 158 164 169 167 161 160 163 163 157 154 150 149 151 146 146 142 136 135 139 137 125 114 98 90 108 115 108 122 125 109 106 107 105 102 102 105 108
305 325 358 13 68 15 42 15 75 150 213 179 197 265 202 236 305 311 297 295 286 267 214 23 304 264 69 200 153 108 277 318 191 164 168 188 185 172 168 162 161 161 162 167 169 169 169 169 167 166 165 165 167 171 174 170 161 159 159 155 158 167 171 167 162 161 163 166 161 158 154 152 153 147 146 143 139 143 147 138 125 119 100 90 107 121 114 125 136 129 122 117 116 117 115 114 117
298 320 4 29 102 87 115 252 256 241 235 171 189 202 172 252 284 302 307 307 296 237 179 92 303 296 31 290 120 140 219 329 277 211 178 176 178 168 163 161 160 161 163 167 169 168 168 168 167 164 164 165 162 161 159 155 152 154 156 157 162 169 171 167 163 161 163 169 164 159 158 156 154 150 148 145 144 149 151 140 134 126 104 92 106 127 120 126 135 134 141 129 126 125 124 124 124
280 333 14 48 75 36 143 219 232 246 244 177 201 228 242 280 285 312 334 333 331 21 109 151 329 332 271 303 355 140 48 330 282 233 179 168 167 164 161 161 160 160 163 167 169 168 167 167 165 164 164 163 156 150 148 146 150 155 157 161 166 169 169 167 166 162 164 168 165 163 163 160 156 154 151 149 149 148 152 148 145 132 110 94 104 132 127 130 131 137 164 139 132 128 126 129 127
117 124 3 97 120 6 166 224 235 216 238 213 248 266 298 306 316 336 346 354 322 330 331 309 5 58 273 20 128 232 20 348 281 189 173 163 163 163 162 162 160 160 164 167 169 168 167 166 164 165 165 162 155 149 148 148 154 158 160 163 166 167 168 168 168 166 166 166 167 169 167 161 157 159 156 153 151 147 153 154 150 136 116 94 103 135 134 136 131 145 176 152 142 140 133 134 131
84 65 83 129 162 236 214 228 248 229 245 279 291 281 323 314 343 352 330 342 310 291 289 311 360 188 289 4 243 268 2 355 185 164 167 163 165 165 164 165 162 162 165 166 168 167 167 167 166 167 166 162 158 155 154 156 158 160 162 164 165 165 167 170 168 168 170 168 170 173 170 165 161 162 160 157 156 153 158 161 161 144 117 90 98 132 143 143 137 154 177 162 154 154 145 142 139
49 28 146 129 153 227 233 224 234 237 241 307 294 278 297 308 343 1 332 326 315 305 289 303 323 226 318 299 280 330 354 7 133 150 163 165 166 166 167 168 166 164 164 166 167 167 168 168 169 171 169 165 162 161 161 161 161 162 164 164 164 163 166 168 168 173 175 173 174 176 172 170 168 164 164 163 160 161 165 167 171 154 120 96 94 124 153 151 146 156 169 169 164 162 158 152 148
45 9 119 167 196 225 231 229 233 234 247 302 276 272 293 322 318 317 338 318 314 325 302 336 5 261 11 312 282 2 71 133 143 149 160 165 167 168 169 167 167 167 166 167 168 168 169 170 172 173 171 168 166 165 165 165 165 167 168 166 165 164 165 166 170 175 177 177 178 178 175 175 174 168 168 168 166 168 170 172 173 160 130 118 102 109 158 162 156 155 164 174 169 167 170 163 157
96 155 109 190 214 228 225 236 244 245 255 249 254 267 338 335 305 280 330 320 332 331 301 347 360 166 22 306 266 339 115 147 158 155 160 164 166 169 169 168 169 170 169 169 170 170 171 172 174 174 173 171 171 170 169 169 169 170 172 172 169 167 168 170 173 175 178 181 181 181 181 179 174 169 172 172 172 175 179 184 182 175 154 145 123 94 148 167 168 160 166 180 173 178 185 172 165
137 158 139 191 213 213 217 243 254 254 251 238 241 257 40 342 292 209 324 315 334 349 323 325 304 141 311 266 278 346 119 160 162 158 163 164 166 169 169 169 170 171 171 171 172 173 173 175 175 175 175 174 175 175 174 173 172 173 174 175 175 174 174 174 175 177 180 184 183 184 184 182 179 174 177 177 177 182 187 195 194 199 201 165 161 89 119 153 170 171 172 184 173 177 191 179 174
150 156 152 186 245 189 209 238 231 238 246 211 203 242 53 312 228 192 31 330 306 302 309 305 141 129 267 288 318 340 124 161 159 161 163 165 167 169 169 169 171 172 173 174 175 176 176 177 177 177 177 176 178 178 179 178 177 177 178 179 178 179 178 179 180 180 183 186 185 187 187 186 185 182 183 183 183 189 192 199 206 214 222 200 187 110 117 127 143 165 173 183 177 182 195 187 184
149 145 126 152 202 176 205 218 207 236 242 148 176 172 323 230 189 287 306 288 279 230 295 330 114 105 236 242 279 292 245 163 161 164 162 165 167 167 170 169 171 173 176 176 177 180 179 180 179 180 180 179 181 180 182 183 182 183 184 186 184 184 184 184 184 184 186 188 188 190 192 190 188 189 190 188 188 194 197 203 214 221 228 221 200 158 121 125 115 128 149 163 178 194 198 194 193
143 115 96 160 193 187 203 200 194 239 234 154 165 118 246 263 187 259 259 204 269 278 11 330 69 71 194 205 261 305 283 166 161 165 161 161 163 165 168 170 173 174 179 180 179 183 181 182 182 182 183 183 186 185 185 186 187 187 189 191 191 190 190 190 188 189 190 188 192 196 197 196 191 191 192 193 194 197 202 210 217 223 232 225 209 199 136 133 139 117 111 130 147 180 194 199 201
42 98 141 204 204 199 193 188 189 216 197 156 167 141 205 281 261 239 285 216 258 299 5 285 265 129 196 245 296 317 210 163 160 161 154 153 156 158 164 169 174 175 180 182 183 185 183 184 185 185 185 186 189 190 189 189 190 190 191 193 195 196 196 197 193 193 193 190 196 200 202 201 193 191 193 195 198 201 206 214 219 225 235 227 213 209 192 151 168 182 119 110 80 63 173 203 206
127 146 197 215 209 208 186 189 195 147 120 172 175 168 182 253 273 301 319 242 227 285 290 309 335 262 215 276 351 14 152 158 159 158 150 151 155 155 162 168 174 178 181 183 186 185 184 185 187 189 188 190 193 194 195 194 194 193 194 196 196 198 199 201 199 198 197 193 198 203 204 207 198 192 197 198 200 205 209 216 220 227 238 228 219 214 221 207 198 213 227 222 71 29 32 206 211
182 160 210 221 206 212 180 188 208 180 161 168 164 169 174 204 240 55 299 255 244 258 265 336 345 322 299 335 32 68 139 157 161 162 159 160 163 163 166 168 172 179 182 185 188 185 185 187 188 192 192 194 196 199 201 200 201 199 198 199 200 201 200 203 202 202 202 196 200 205 205 209 205 197 200 202 203 207 212 218 220 231 241 229 222 223 230 233 231 232 239 253 254 266 313 165 211
197 167 224 228 211 241 223 201 215 210 177 175 183 173 182 189 187 149 257 267 260 245 243 273 292 294 292 298 353 50 120 157 169 172 170 171 174 173 172 173 174 178 184 188 190 188 189 190 191 195 195 197 198 201 205 205 206 205 203 202 203 204 203 205 203 202 206 202 199 206 206 206 207 204 205 206 207 211 213 217 222 233 244 232 225 227 230 234 237 239 242 252 258 262 258 242 233
172 199 222 233 312 265 236 224 226 216 196 208 178 140 200 197 165 184 159 249 256 244 234 235 240 242 252 277 307 40 101 143 176 182 184 180 180 181 180 181 182 182 184 187 190 193 194 193 195 199 200 200 202 204 207 208 205 205 207 205 203 204 204 203 203 203 204 205 202 206 208 206 208 209 210 211 211 214 216 219 225 233 243 238 230 229 230 231 234 236 237 243 253 262 266 265 266
223 248 251 264 304 278 268 312 323 356 230 228 166 151 197 163 159 194 187 216 244 251 238 216 216 211 210 233 269 78 111 132 170 184 193 191 185 184 185 186 186 186 187 188 189 195 199 200 200 203 205 205 206 208 211 212 208 205 207 207 206 206 205 200 201 207 208 206 203 206 210 209 211 212 214 217 217 218 220 224 230 235 242 241 236 235 233 234 238 240 240 242 251 261 266 268 270
260 282 320 285 259 249 303 337 336 12 11 266 197 214 184 161 226 207 202 222 231 245 231 204 213 198 184 177 149 123 187 171 182 191 189 194 197 186 183 187 190 191 192 194 193 195 200 203 205 206 207 207 209 211 213 214 211 207 209 209 210 210 208 202 199 205 210 209 206 207 211 212 210 213 219 222 222 224 226 230 234 237 241 243 241 240 239 239 242 246 247 248 252 259 265 267 269
236 273 310 298 290 261 287 309 307 337 320 269 273 321 281 204 231 195 208 227 230 238 221 190 233 216 202 174 141 179 229 206 193 204 198 195 203 198 189 192 197 197 194 197 198 196 199 201 205 207 208 209 209 210 210 212 210 206 209 210 208 210 208 203 202 204 206 204 206 208 207 211 212 215 220 223 226 228 230 234 236 238 241 245 246 244 246 246 246 249 253 254 256 260 266 269 270
223 253 285 301 302 285 292 302 310 316 292 280 288 288 260 219 247 256 229 229 230 240 232 202 236 264 268 268 225 211 247 258 200 192 213 208 205 203 198 198 199 199 198 199 199 199 200 201 204 206 209 209 208 210 205 203 208 204 205 205 202 205 208 204 202 205 208 204 205 209 206 207 212 216 219 222 226 226 229 234 236 239 242 246 250 249 249 249 250 253 255 258 260 263 267 271 273
227 249 277 291 294 293 299 295 302 308 300 318 299 280 265 231 266 268 242 232 229 235 235 218 225 246 257 266 264 253 250 260 245 196 218 225 214 208 203 201 200 203 205 203 204 205 203 203 206 208 211 211 208 211 206 200 205 205 201 205 205 201 205 211 205 200 206 210 210 211 212 211 211 216 221 223 225 225 228 234 237 240 244 247 252 253 251 251 254 256 258 262 265 267 271 276 277
274 278 273 261 275 281 283 279 289 315 300 283 278 278 278 247 230 249 236 229 222 218 234 221 213 231 239 251 258 255 245 247 245 217 222 228 218 215 209 201 202 208 210 208 210 213 209 206 209 211 213 214 210 210 212 206 206 205 199 203 210 203 200 213 216 207 201 210 216 211 214 218 215 217 223 224 225 227 229 233 238 241 244 248 253 255 252 252 255 260 263 267 270 271 275 279 279
315 317 300 278 284 283 256 263 278 296 283 258 225 271 286 260 234 237 223 225 209 210 235 225 214 223 223 234 242 237 241 247 239 208 207 230 222 216 211 205 204 207 211 214 216 217 215 211 212 215 215 217 214 211 213 212 211 209 202 200 205 206 207 211 217 216 205 204 217 218 219 224 223 221 224 226 227 230 231 233 237 240 244 248 252 255 254 254 257 262 266 270 273 274 275 275 275
310 344 315 299 316 291 246 239 226 176 228 201 148 287 277 247 242 223 191 203 201 211 231 231 224 224 218 222 232 233 232 239 237 220 220 235 239 221 210 211 207 205 211 218 222 222 222 218 215 219 218 218 219 216 213 214 215 215 211 209 204 202 210 214 213 216 211 206 212 222 225 225 227 227 227 229 230 232 235 236 238 242 245 248 251 253 253 254 255 260 265 269 273 275 275 275 274
309 346 308 313 335 297 258 229 187 173 208 160 140 278 259 248 250 190 171 190 206 216 226 234 233 227 228 223 224 237 236 231 229 229 231 236 244 235 214 207 202 202 208 214 222 227 229 226 222 221 220 219 221 221 217 216 217 217 218 219 215 208 208 216 216 214 215 213 213 222 230 227 225 225 228 232 234 235 238 241 243 246 248 249 252 253 252 251 254 259 263 267 270 273 275 276 275
320 311 295 342 313 279 283 212 152 171 225 162 147 246 255 260 272 203 189 192 204 218 225 233 235 224 228 229 224 232 237 234 228 227 231 234 238 243 232 203 194 202 214 225 234 239 236 231 228 224 222 222 221 221 221 221 220 220 220 222 225 222 217 220 223 220 218 220 218 220 228 232 228 226 227 231 235 237 240 243 246 250 252 252 254 255 255 254 256 260 263 266 268 270 272 274 274
6 297 287 250 222 254 301 262 166 171 235 168 159 231 264 278 284 249 222 213 212 219 226 231 236 228 221 229 228 227 234 238 234 229 228 231 234 240 241 226 217 232 245 253 253 248 238 231 229 227 225 224 223 223 224 224 224 223 224 225 228 230 228 227 229 228 224 225 226 223 224 228 231 233 233 234 237 240 242 245 249 253 256 256 258 259 258 258 260 263 266 266 266 268 271 272 274
17 216 245 235 228 268 321 294 216 181 187 186 200 227 275 300 290 321 349 290 259 241 241 240 239 234 222 229 232 227 232 234 237 237 233 232 233 236 241 240 240 249 252 253 252 247 238 230 228 227 228 227 224 224 223 222 223 224 225 227 228 228 230 231 232 233 231 230 233 233 231 229 231 235 238 240 241 244 248 251 255 258 259 258 259 259 259 261 263 265 267 267 266 267 269 271 273
258 216 248 251 238 259 288 312 316 166 178 217 230 241 242 224 275 317 358 43 6 290 267 264 257 251 237 235 242 237 234 232 230 234 236 237 238 239 240 240 241 247 251 249 247 243 237 231 226 224 226 227 226 224 223 223 223 226 227 228 230 229 230 232 233 234 235 236 236 238 239 238 237 238 239 240 241 245 249 254 258 259 259 258 258 258 261 264 266 267 268 267 266 265 266 269 272
208 197 231 264 251 250 254 266 312 65 200 228 234 248 248 246 265 282 286 6 332 277 261 268 271 271 270 258 256 254 246 244 238 233 237 238 239 241 242 241 239 241 245 245 242 235 228 225 222 218 219 223 226 224 223 223 222 222 221 221 224 225 227 231 233 233 235 239 240 240 242 244 245 246 246 244 242 244 247 250 253 254 255 255 256 257 258 261 265 266 265 266 267 268 269 269 273
183 190 205 245 252 247 240 245 258 46 290 250 238 251 257 256 257 268 277 279 279 271 259 260 270 271 274 267 259 261 254 251 246 241 242 240 238 239 241 240 238 235 232 229 223 217 214 211 209 208 211 216 219 220 219 219 216 213 211 208 210 213 217 222 228 233 235 236 238 240 244 246 248 251 253 252 247 244 245 247 248 250 251 252 253 254 256 261 265 268 268 266 266 268 268 268 272
28 228 234 241 250 259 256 307 288 348 269 252 236 253 267 263 252 258 273 277 269 267 263 255 257 261 261 257 252 249 251 254 251 245 239 236 233 230 231 232 229 224 213 203 193 191 192 191 190 188 193 201 204 207 208 208 205 196 192 194 198 205 212 218 227 232 232 234 238 241 242 243 247 250 252 254 250 243 242 245 246 246 247 248 251 254 259 262 263 266 268 265 260 256 256 261 268
279 271 280 275 251 257 259 207 283 16 210 255 254 265 271 265 253 244 259 269 257 252 256 253 246 248 252 254 255 251 256 265 259 248 225 211 210 207 209 208 206 200 190 182 177 177 176 173 172 167 168 177 182 187 188 191 193 177 167 174 181 187 195 209 225 227 223 228 238 242 237 231 237 244 244 245 244 239 238 242 244 246 248 249 251 254 255 255 255 257 259 258 254 251 250 258 267
265 266 291 281 260 269 288 243 234 182 204 261 291 276 270 268 255 236 242 253 253 241 240 243 237 239 243 239 246 254 261 270 261 248 213 195 188 185 187 186 189 188 177 169 166 167 166 164 164 156 156 161 161 166 171 174 175 170 168 167 169 171 167 178 194 193 198 206 219 238 239 221 224 234 235 234 236 236 237 239 241 244 244 245 249 252 254 256 258 260 263 260 252 250 251 257 267
241 237 249 261 267 290 280 274 226 210 227 264 306 299 276 274 260 244 243 244 254 252 240 244 236 231 237 234 232 237 242 258 257 244 214 188 176 174 176 174 177 176 165 159 160 162 160 157 158 154 152 153 152 155 159 159 156 155 155 151 155 156 150 159 169 165 170 169 189 225 268 275 226 234 236 235 239 240 241 239 239 242 241 240 246 254 256 255 257 262 270 267 255 246 249 261 273
234 225 226 246 259 238 238 286 12 303 275 246 280 307 284 268 254 248 246 240 248 251 244 251 247 233 240 248 243 230 229 239 232 212 191 176 171 168 168 163 161 160 157 156 158 160 158 154 153 152 149 146 146 148 150 151 150 146 141 138 139 138 137 146 154 149 141 131 120 126 112 12 336 310 275 250 246 242 245 244 242 246 249 249 253 261 260 255 256 260 266 267 259 252 256 265 268
254 230 224 232 245 242 243 314 44 326 288 223 202 272 278 276 265 254 253 250 249 246 240 244 245 235 230 240 243 233 226 230 213 190 175 164 159 151 154 156 153 152 154 153 153 154 154 154 152 152 147 142 139 139 142 146 147 145 144 141 138 139 136 129 137 144 139 136 105 69 52 44 23 353 352 275 257 251 251 250 249 250 253 255 255 264 272 271 268 265 264 265 261 258 260 261 257
261 234 214 222 234 241 239 213 153 236 269 272 140 207 268 294 271 247 241 258 263 261 259 252 249 240 225 225 232 227 216 207 183 169 161 151 157 152 149 154 150 147 148 148 147 148 149 150 152 154 151 144 141 138 143 147 144 139 139 141 140 145 142 121 115 121 124 143 138 15 345 339 316 312 329 321 300 278 264 255 255 254 254 258 255 259 270 276 280 280 275 270 266 263 255 247 247
247 227 166 195 218 228 226 213 204 228 262 329 102 180 268 277 258 239 195 238 274 275 271 263 254 245 238 230 223 217 206 194 177 172 170 160 164 163 153 152 148 143 143 144 143 143 145 146 147 151 153 151 148 147 153 156 151 139 131 131 128 128 134 126 115 104 102 107 134 243 295 314 313 310 307 305 302 301 296 284 274 266 259 260 256 255 258 260 267 278 282 279 278 274 259 247 245
248 180 130 178 206 216 213 204 215 243 258 265 214 189 254 267 266 31 158 229 258 263 258 258 250 239 240 239 230 219 202 193 184 176 176 170 166 162 155 148 143 141 140 139 138 138 138 139 140 142 145 151 155 160 160 156 159 156 144 134 125 120 121 123 119 107 92 80 69 35 351 314 315 320 312 307 300 296 299 299 299 294 285 277 268 260 256 253 257 265 270 275 282 284 276 266 259
219 118 81 57 69 104 177 188 195 225 236 232 225 196 219 266 259 146 186 232 237 246 251 255 254 240 233 237 235 224 198 192 193 180 174 168 160 156 151 143 140 139 138 136 133 132 131 130 131 128 126 132 144 155 159 150 150 154 152 145 133 124 122 125 125 109 83 64 44 35 25 6 344 329 324 322 311 306 304 298 297 296 292 290 283 276 269 263 259 260 261 264 270 276 281 281 276
127 112 75 41 33 47 42 80 128 193 239 236 232 207 199 256 265 173 203 221 214 228 248 258 259 246 233 233 233 220 196 189 188 173 156 147 146 147 144 139 137 134 134 133 130 128 127 126 124 118 113 117 124 134 142 141 139 137 136 138 137 131 127 125 118 99 84 73 60 53 49 42 35 24 3 346 332 326 317 307 304 298 291 285 283 283 281 278 273 269 267 265 265 267 272 278 282
137 122 109 57 334 24 18 360 126 211 233 233 233 212 195 235 261 211 211 223 217 213 226 243 250 249 241 234 230 218 199 188 176 161 152 143 140 144 143 138 137 135 132 129 127 127 125 123 123 115 110 113 116 120 126 126 127 124 120 121 120 119 119 115 103 90 82 77 68 63 60 54 50 45 36 27 17 4 346 331 319 306 299 293 287 285 284 284 281 278 276 275 274 271 271 274 278
171 140 138 201 279 360 334 252 208 227 241 242 230 197 196 228 248 249 232 235 241 221 217 232 240 247 246 233 223 206 184 176 169 161 159 155 152 152 149 144 141 138 134 130 127 126 123 122 122 116 110 112 113 114 116 115 115 113 112 111 107 103 104 102 96 88 80 75 69 63 59 54 49 45 40 35 30 23 15 6 355 340 330 319 309 300 294 291 289 287 285 283 283 283 282 282 281
181 168 171 204 220 227 232 226 238 250 251 259 231 179 222 221 231 247 238 231 235 228 228 234 235 240 240 228 206 181 173 173 170 167 163 162 161 156 151 148 144 139 136 132 128 125 122 120 120 116 112 113 114 112 112 110 109 108 107 106 102 98 95 92 90 87 81 76 69 63 60 55 52 49 45 40 35 31 27 22 15 6 355 345 334 322 312 306 300 296 293 291 290 290 290 289 289
192 188 187 206 192 202 227 216 233 245 250 276 214 171 224 195 200 240 239 232 228 228 232 228 235 240 230 217 182 169 175 169 165 165 162 162 157 152 150 147 143 139 135 131 128 125 122 120 118 117 115 114 114 112 111 109 107 107 105 103 100 97 93 90 87 85 82 80 75 70 65 60 56 53 48 45 40 36 35 32 26 20 11 1 352 342 332 324 316 310 305 301 298 297 296 293 293
215 189 192 220 205 206 240 213 199 219 258 284 207 205 234 222 255 271 268 263 233 232 238 225 232 234 158 174 186 175 175 162 159 158 154 154 147 145 144 141 139 137 134 131 130 127 123 120 117 116 114 114 113 111 109 108 108 106 103 100 98 95 93 90 86 84 81 79 76 72 68 62 57 52 48 44 40 36 35 33 30 27 23 17 8 357 348 339 331 327 323 317 312 309 306 303 301
191 178 200 227 209 196 248 275 146 145 252 244 202 246 267 251 277 261 225 267 255 239 243 231 229 199 153 196 197 176 171 157 154 151 149 149 145 142 142 141 140 137 135 133 131 128 124 121 118 115 113 112 111 109 109 108 107 104 100 98 96 93 90 86 83 80 77 74 71 68 65 59 54 50 45 41 38 35 32 30 29 26 24 23 19 13 3 351 341 337 335 332 329 324 317 316 316
157 203 199 152 31 129 169 262 292 209 252 244 207 230 230 206 253 245 194 224 244 237 240 235 223 184 193 206 181 169 166 150 142 139 142 143 140 142 143 143 143 140 137 133 130 126 123 121 119 117 115 113 111 111 110 108 106 103 99 96 92 88 86 81 78 74 71 68 64 61 58 53 49 44 41 37 34 33 30 27 26 24 22 21 19 17 13 6 357 347 340 337 336 331 325 324 325
186 244 207 127 217 229 163 214 244 242 249 253 227 236 234 202 230 251 204 218 228 227 233 228 211 208 210 195 171 168 159 151 150 144 145 144 141 143 142 142 140 138 134 130 126 123 121 120 120 118 115 114 113 113 111 108 105 101 97 94 89 85 81 77 74 69 64 60 57 54 50 46 43 37 34 31 28 27 26 25 23 22 20 19 16 14 13 12 11 4 355 348 343 336 332 329 327
205 299 292 196 214 210 195 220 236 242 250 260 244 244 243 203 207 215 223 227 221 215 223 225 222 221 208 182 173 170 163 163 159 152 153 147 144 147 145 142 138 134 130 127 124 122 120 119 119 118 116 115 114 112 111 106 102 99 96 92 86 82 78 73 70 64 59 56 52 49 45 41 37 32 28 26 22 21 20 20 20 19 18 17 16 13 11 12 12 11 9 4 358 350 343 338 332
223 233 251 257 237 233 273 254 238 233 243 249 247 249 252 225 199 206 220 227 211 202 210 222 227 223 204 181 173 169 166 164 157 153 154 147 145 147 144 140 136 133 129 127 125 123 121 120 119 118 117 116 113 111 109 106 102 100 96 92 87 82 78 73 70 65 60 57 51 47 44 39 34 30 26 23 20 18 16 15 15 14 14 14 13 12 11 12 12 11 11 9 2 357 353 347 341
228 227 231 227 225 240 263 255 232 220 231 226 237 252 252 251 244 220 228 236 219 209 215 227 232 219 197 177 171 167 162 161 159 155 152 149 146 143 141 139 136 133 131 129 128 126 124 122 120 119 116 114 112 110 109 106 104 101 97 94 90 87 83 78 75 69 64 60 54 50 45 40 35 30 26 23 20 18 16 14 12 10 10 9 9 10 10 10 12 11 10 7 2 358 355 351 347